Regional Weather Roundup
Issued by NWS Northern Indiana

Home | Current Version | Previous Version | Text Only | Print | Product List | Glossary Off
Versions: 1 2 3 4 5 6 7 8 9 10 11 12 13 14 15 16 17 18 19 20 21 22 23 24 25 26 27 28 29 30 31 32 33 34 35 36 37 38 39 40 41 42 43 44 45 46 47 48 49 50

950
ASUS43 KIWX 260510
RWRIWX

KIWX WEATHER ROUNDUP
NATIONAL WEATHER SERVICE NORTHERN INDIANA
100 AM EDT FRI AUG 26 2016

NOTE: "FAIR" INDICATES FEW OR NO CLOUDS BELOW 12,000 FEET WITH NO
SIGNIFICANT WEATHER AND/OR OBSTRUCTIONS TO VISIBILITY.

* THESE STATIONS ARE NOT UNDER NWS QUALITY CONTROL. THEY ALSO MAY NOT
  REPORT WEATHER SUCH AS PRECIPITATION OR FOG.

INZ001>027-260600-
NORTHERN INDIANA

CITY           SKY/WX    TMP DP  RH WIND       PRES   REMARKS
GARY*            N/A     68  68 100 CALM      30.09S FOG
VALPARAISO     FAIR      71  68  90 CALM      30.09R
MICHIGAN CITY* FAIR      68  68 100 MISG      30.09R
LAPORTE*       FAIR     N/A N/A N/A CALM      30.10R
KNOX*          FAIR      68  59  73 CALM      30.08R
SOUTH BEND     FAIR      67  67 100 CALM      30.09R
GOSHEN         FAIR      69  66  90 CALM      30.09R
MONTICELLO*    FAIR      70  66  88 CALM      30.07S
LOGANSPORT*    FAIR      68  68 100 CALM      30.09S
ROCHESTER*     FOG       72  72 100 CALM      30.09S VSB 3/4
WARSAW*        FOG       68  68 100 CALM      30.09R VSB 1/2
FORT WAYNE     MOCLDY    73  70  90 NW3       30.08S
HUNTINGTON*    FAIR     N/A N/A N/A CALM      30.08S
PERU/GRISSOM   FAIR      72  72 100 W2        30.08R
MARION*        FAIR      70  69  96 CALM      30.09S

$$
INZ028>050-260600-
CENTRAL INDIANA

CITY           SKY/WX    TMP DP  RH WIND       PRES   REMARKS
LAFAYETTE      FAIR      72  71  97 N3        30.07S
MUNCIE*        FAIR      74  70  87 CALM      30.09R
INDIANAPOLIS   MOCLDY    78  72  81 CALM      30.08R

$$
MIZ043>046-050>051-056>058-064>065-071>073-077>080-260600-
SOUTHWEST LOWER MICHIGAN

CITY           SKY/WX    TMP DP  RH WIND       PRES   REMARKS
BATTLE CREEK   MOCLDY    62  61  96 SW3       30.08S
BENTON HARBOR  FAIR      65  62  90 CALM      30.07S
COLDWATER*     MOCLDY    63  63 100 CALM      30.08S
HILLSDALE*     CLOUDY    66  64  91 W3        30.08R
HOLLAND        FAIR      61  59  93 CALM      30.08R
GRAND RAPIDS   FAIR      65  61  87 W6        30.07R
KALAMAZOO      FAIR      66  61  84 CALM      30.08R
STURGIS*       FAIR      64  63  94 CALM      30.08R
THREE RIVERS*  FAIR      66  65  96 CALM      30.09R

$$
OHZ001>008-015>018-024>025-260600-
NORTHWEST OHIO

CITY           SKY/WX    TMP DP  RH WIND       PRES   REMARKS
WAUSEON*       CLOUDY    70  68  94 NW6       30.07R
DEFIANCE       CLOUDY    74  70  87 CALM      30.07R
FINDLAY        MOCLDY    74  68  81 W6        30.06R
TOLEDO EXPRESS FAIR      73  70  90 NW6       30.05R
TOLEDO METCALF FAIR      74  71  91 W6        30.06R
LIMA           MOCLDY    73  71  93 W6        30.08R

$$
AND FOR LAKE MICHIGAN COASTAL AND OPEN LAKE BUOY OBSERVATIONS

STATION/POSITION TEMP    WIND        PRES    VSBY  WAVE
                 AIR SEA DIR/SP/G                  HT/PER
                 (F)     (DEG/KT/KT) (MB)    (MI)  (FT/S)
CALUMET HARBOR    72     180/  2/  2 1018.0R
MICHIGAN CITY     73     160/  1/  1   N/A
BURNS HARBOR      74      CALM  /  3 1018.6S
SAINT JOSEPH      73     240/  5/  6 1019.3R
SOUTH LAKE BUOY   75 75  290/ 12/ 12 1017.3R         1
4 MI NW BRIDGMAN  74 75  250/  4/  6 1018.1R         1/ 4
MICHIGAN CITY     74 75  230/  4/  6   N/A           1

$$
&&




USA.gov is the U.S. government's official web portal to all federal, state and local government web resources and services.